Weather in Thổ Chu

Vietnam     9°20′16″N   103°29′08″E
temp.,
°C
wind,
m/s
gust,
m/s
humid.,
%
clouds,
%
prec.,
mm/h
press.,
hPa
HPBL,
m
16 may, sun
sun1601:00+29se337389 3.7 1007447
04:00+29se3375100 0.9 1006401
07:00+29ese5577100 7.3 1008425
10:00+30ese557343 3.1 1009778
13:00+30se347294 3.2 1007808
16:00+30sse23725 0.1 1005665
19:00+30sse337321 1.1 1007395
22:00+30s44735 2.5 1008585
17 may, mon
mon1701:00+30s4474100 2.5 1007685
04:00+29s4577100 1.2 1006389
07:00+30s4473100 2.7 1008839
10:00+30sse3372100 0.0 1009832
13:00+30s3371100 0.0 1008856
16:00+30ssw3370100 0.3 1006820
19:00+30ssw327095 0.6 1007777
22:00+30s337189 0.0 1008740
18 may, tue
tue1801:00+29s4474100 2.1 1007404
04:00+30s4473100 3.1 1007678
07:00+30sse4471100 3.1 1008762
10:00+30s337091 0.1 1009838
13:00+30ssw3368100 0.4 1007862
16:00+30ssw226875 0.3 1006884
19:00+30ssw336940 0.3 1007815
22:00+30ssw337038 0.0 1009815
19 may, wed
wed1901:00+30sw447156 0.1 1008774
04:00+30sw666865 3.1 1007940
07:00+30sw4468100 3.1 1008752
10:00+30wsw446945 0.0 1009848
13:00+30wsw557164 0.0 1007962
16:00+30wsw55738 0.1 1006783
19:00+30wsw447423 0.2 1007811
22:00+30sw447516 0.6 1008694
20 may, thu
thu2001:00+30wsw447598 0.7 1007673
04:00+30sw6673100 4.4 1007760
07:00+30wsw567168 5.2 1008998
10:00+30w5572100 2.3 1009891
13:00+30w567240 2.3 10071007
16:00+30w557215 0.4 1006928
19:00+30w5573100 1.0 1007885
22:00+30wsw3473100 0.1 1009716